• In India
  • List of Countries
  • For 7 days
  • Water Temperature
  • Satellite Maps
  • Weather Map
  • Weather Widgets
  • user-avatar
    Login

    Hourly Weather Zavadivka

    Today, 20 September, Thursday

    Time Temperature Precipitation Wind Pressure Humidity
    00:00 +21°C° 0 mm 1 mps 756 mmHg 50%
    01:00 +20°C° 0 mm 1 mps 756 mmHg 51%
    02:00 +20°C° 0 mm 1 mps 756 mmHg 52%
    03:00 +20°C° 0 mm 1 mps 756 mmHg 54%
    04:00 +19°C° 0 mm 1 mps 756 mmHg 56%
    05:00 +19°C° 0 mm 1 mps 756 mmHg 58%
    06:00 +20°C° 0 mm 1 mps 756 mmHg 54%
    07:00 +22°C° 0 mm 1 mps 756 mmHg 51%
    08:00 +23°C° 0 mm 1 mps 756 mmHg 47%
    09:00 +25°C° 0 mm 2 mps 756 mmHg 43%
    10:00 +27°C° 0 mm 2 mps 756 mmHg 38%
    11:00 +28°C° 0 mm 2 mps 756 mmHg 33%
    12:00 +29°C° 0 mm 2 mps 756 mmHg 31%
    13:00 +30°C° 0 mm 2 mps 755 mmHg 29%
    14:00 +30°C° 0 mm 2 mps 755 mmHg 27%
    15:00 +30°C° 0 mm 2 mps 755 mmHg 29%
    16:00 +29°C° 0 mm 2 mps 755 mmHg 31%
    17:00 +28°C° 0 mm 1 mps 754 mmHg 33%
    18:00 +27°C° 0 mm 1 mps 754 mmHg 36%
    19:00 +25°C° 0 mm 1 mps 754 mmHg 40%
    20:00 +24°C° 0 mm 2 mps 754 mmHg 43%
    21:00 +23°C° 0 mm 1 mps 754 mmHg 45%
    22:00 +22°C° 0 mm 1 mps 754 mmHg 47%
    23:00 +22°C° 0 mm 1 mps 754 mmHg 50%

    Tomorrow, 21 September, Friday

    Time Temperature Precipitation Wind Pressure Humidity
    00:00 +21°C° 0 mm 1 mps 754 mmHg 51%
    01:00 +21°C° 0 mm 1 mps 754 mmHg 53%
    02:00 +21°C° 0 mm 1 mps 755 mmHg 54%
    03:00 +20°C° 0 mm 1 mps 755 mmHg 56%
    04:00 +20°C° 0 mm 1 mps 755 mmHg 57%
    05:00 +20°C° 0 mm 1 mps 755 mmHg 59%
    06:00 +21°C° 0 mm 1 mps 755 mmHg 56%
    07:00 +21°C° 0 mm 2 mps 755 mmHg 53%
    08:00 +24°C° 0 mm 2 mps 755 mmHg 50%
    09:00 +25°C° 0 mm 2 mps 755 mmHg 46%
    10:00 +27°C° 0 mm 2 mps 755 mmHg 42%
    11:00 +28°C° 0 mm 2 mps 755 mmHg 38%
    12:00 +29°C° 0 mm 2 mps 755 mmHg 36%
    13:00 +29°C° 0 mm 2 mps 754 mmHg 34%
    14:00 +30°C° 0 mm 2 mps 754 mmHg 32%
    15:00 +30°C° 0 mm 2 mps 754 mmHg 33%
    16:00 +29°C° 0 mm 1 mps 754 mmHg 35%
    17:00 +29°C° 0 mm 1 mps 753 mmHg 36%
    18:00 +27°C° 0 mm 1 mps 753 mmHg 39%
    19:00 +26°C° 0 mm 1 mps 753 mmHg 42%
    20:00 +24°C° 0 mm 2 mps 754 mmHg 44%
    21:00 +24°C° 0 mm 1 mps 754 mmHg 46%
    22:00 +23°C° 0 mm 1 mps 754 mmHg 47%
    23:00 +23°C° 0 mm 1 mps 754 mmHg 49%

    Day after tomorrow, 22 September, Saturday

    Time Temperature Precipitation Wind Pressure Humidity
    00:00 +22°C° 0 mm 1 mps 754 mmHg 50%
    01:00 +22°C° 0 mm 1 mps 753 mmHg 51%
    02:00 +21°C° 0 mm 1 mps 753 mmHg 52%
    03:00 +21°C° 0 mm 1 mps 753 mmHg 53%
    04:00 +21°C° 0 mm 1 mps 753 mmHg 53%
    05:00 +20°C° 0 mm 1 mps 753 mmHg 54%
    06:00 +22°C° 0 mm 1 mps 753 mmHg 51%
    07:00 +23°C° 0 mm 1 mps 753 mmHg 48%
    08:00 +25°C° 0 mm 2 mps 753 mmHg 45%
    09:00 +26°C° 0 mm 2 mps 753 mmHg 41%
    10:00 +28°C° 0 mm 2 mps 753 mmHg 37%
    11:00 +29°C° 0 mm 3 mps 753 mmHg 33%
    12:00 +30°C° 0 mm 3 mps 753 mmHg 31%
    13:00 +30°C° 0 mm 3 mps 752 mmHg 30%
    14:00 +31°C° 0 mm 3 mps 752 mmHg 28%
    15:00 +30°C° 0 mm 3 mps 751 mmHg 30%
    16:00 +30°C° 0 mm 3 mps 751 mmHg 32%
    17:00 +29°C° 0 mm 2 mps 751 mmHg 34%
    18:00 +27°C° 0 mm 2 mps 751 mmHg 37%
    19:00 +26°C° 0 mm 3 mps 751 mmHg 39%
    20:00 +24°C° 0 mm 3 mps 751 mmHg 42%
    21:00 +24°C° 0 mm 3 mps 750 mmHg 45%
    22:00 +22°C° 0 mm 3 mps 750 mmHg 47%
    23:00 +21°C° 0 mm 3 mps 750 mmHg 49%

    23 September, Sunday

    Time Temperature Precipitation Wind Pressure Humidity
    00:00 +21°C° 0 mm 4 mps 750 mmHg 51%
    01:00 +21°C° 0 mm 4 mps 750 mmHg 52%
    02:00 +20°C° 0 mm 4 mps 750 mmHg 54%
    03:00 +17°C° 0 mm 5 mps 751 mmHg 60%
    04:00 +16°C° 0 mm 6 mps 751 mmHg 65%
    05:00 +14°C° 0 mm 7 mps 751 mmHg 71%
    06:00 +12°C° 0.1 mm 7 mps 752 mmHg 70%
    07:00 +12°C° 0.1 mm 7 mps 752 mmHg 69%
    08:00 +11°C° 0.1 mm 7 mps 753 mmHg 68%
    09:00 +12°C° 0 mm 7 mps 753 mmHg 61%
    10:00 +15°C° 0 mm 7 mps 753 mmHg 53%
    11:00 +16°C° 0 mm 7 mps 754 mmHg 46%
    12:00 +17°C° 0 mm 6 mps 754 mmHg 43%
    13:00 +19°C° 0 mm 6 mps 754 mmHg 40%
    14:00 +20°C° 0 mm 6 mps 753 mmHg 37%
    15:00 +19°C° 0 mm 5 mps 753 mmHg 38%
    16:00 +19°C° 0 mm 4 mps 753 mmHg 39%
    17:00 +19°C° 0 mm 4 mps 754 mmHg 40%
    18:00 +18°C° 0 mm 3 mps 754 mmHg 44%
    19:00 +16°C° 0 mm 2 mps 754 mmHg 47%
    20:00 +15°C° 0 mm 1 mps 754 mmHg 51%
    21:00 +15°C° 0 mm 1 mps 754 mmHg 52%
    22:00 +14°C° 0 mm 1 mps 754 mmHg 54%
    23:00 +14°C° 0 mm 1 mps 754 mmHg 55%

    24 September, Monday

    Time Temperature Precipitation Wind Pressure Humidity
    00:00 +14°C° 0 mm 1 mps 754 mmHg 55%
    01:00 +14°C° 0 mm 2 mps 754 mmHg 56%
    02:00 +13°C° 0 mm 2 mps 753 mmHg 56%
    03:00 +13°C° 0 mm 3 mps 753 mmHg 54%
    04:00 +13°C° 0 mm 3 mps 752 mmHg 52%
    05:00 +13°C° 0 mm 4 mps 752 mmHg 51%
    06:00 +15°C° 0 mm 6 mps 751 mmHg 49%
    07:00 +16°C° 0 mm 7 mps 751 mmHg 46%
    08:00 +17°C° 0 mm 9 mps 750 mmHg 44%
    09:00 +19°C° 0 mm 9 mps 750 mmHg 43%
    10:00 +21°C° 0 mm 10 mps 749 mmHg 42%
    11:00 +23°C° 0 mm 11 mps 749 mmHg 41%
    12:00 +23°C° 0 mm 11 mps 748 mmHg 42%
    13:00 +24°C° 0 mm 11 mps 747 mmHg 42%
    14:00 +24°C° 0 mm 11 mps 746 mmHg 43%
    15:00 +23°C° 0.2 mm 11 mps 746 mmHg 49%
    16:00 +22°C° 0.2 mm 10 mps 746 mmHg 55%
    17:00 +21°C° 0.2 mm 10 mps 746 mmHg 61%
    18:00 +18°C° 0.9 mm 9 mps 747 mmHg 63%
    19:00 +16°C° 0.9 mm 8 mps 748 mmHg 65%
    20:00 +14°C° 0.9 mm 7 mps 749 mmHg 68%
    21:00 +13°C° 0 mm 6 mps 750 mmHg 69%
    22:00 +11°C° 0 mm 6 mps 750 mmHg 70%
    23:00 +10°C° 0 mm 5 mps 751 mmHg 71%

    25 September, Tuesday

    Time Temperature Precipitation Wind Pressure Humidity
    00:00 +10°C° 0 mm 5 mps 751 mmHg 71%
    01:00 +9°C° 0 mm 5 mps 752 mmHg 71%
    02:00 +9°C° 0 mm 5 mps 752 mmHg 71%
    03:00 +9°C° 0 mm 5 mps 753 mmHg 72%
    04:00 +8°C° 0 mm 5 mps 753 mmHg 74%
    05:00 +8°C° 0 mm 5 mps 753 mmHg 75%
    06:00 +9°C° 0 mm 5 mps 754 mmHg 71%
    07:00 +9°C° 0 mm 6 mps 754 mmHg 67%
    08:00 +10°C° 0 mm 7 mps 755 mmHg 63%
    09:00 +11°C° 0 mm 7 mps 755 mmHg 57%
    10:00 +13°C° 0 mm 6 mps 755 mmHg 50%
    11:00 +14°C° 0 mm 6 mps 755 mmHg 43%
    12:00 +14°C° 0 mm 6 mps 755 mmHg 40%
    13:00 +15°C° 0 mm 6 mps 755 mmHg 37%
    14:00 +15°C° 0 mm 6 mps 755 mmHg 34%
    15:00 +15°C° 0 mm 6 mps 755 mmHg 35%
    16:00 +14°C° 0 mm 5 mps 756 mmHg 36%
    17:00 +14°C° 0 mm 5 mps 756 mmHg 37%
    18:00 +13°C° 0 mm 4 mps 756 mmHg 39%
    19:00 +12°C° 0 mm 3 mps 756 mmHg 41%
    20:00 +12°C° 0 mm 3 mps 757 mmHg 42%
    21:00 +11°C° 0 mm 3 mps 757 mmHg 44%
    22:00 +11°C° 0 mm 3 mps 757 mmHg 46%
    23:00 +11°C° 0 mm 3 mps 758 mmHg 49%
    Show more